EW0345 Weather Reports


time (UTC)temp
F
wind
direction
speed
knots
gust
knots
rain 1hr
in
rain 24hr
in
rain mn
in
humidity
%
barometer
mb
20260507154541 60 0.0 0.0 0.00 0.01 0.01 45 1008.3
20260507153041 60 0.0 0.0 0.00 0.01 0.01 48 1008.5
20260507151541 58 0.0 0.0 0.00 0.01 0.01 55 1008.6
20260507150036 56 0.0 0.0 0.00 0.01 0.01 62 1008.7
20260507144542 57 0.0 0.0 0.00 0.01 0.01 61 1008.7
20260507143043 56 0.0 0.0 0.00 0.01 0.01 64 1008.7
20260507141539 55 0.0 0.0 0.00 0.01 0.01 67 1008.7
20260507140053 55 0.0 0.0 0.00 0.01 0.01 66 1008.8
20260507134546 54 0.0 0.0 0.00 0.01 0.01 71 1008.7
20260507133043 53 0.0 0.0 0.00 0.01 0.01 71 1008.9
20260507131542 52 0.0 0.0 0.01 0.01 0.01 76 1009.1
20260507130042 52 0.0 0.0 0.01 0.01 0.01 74 1009.1
20260507124540 51 0.0 0.0 0.01 0.01 0.01 78 1009.0
20260507123039 50 0.0 0.0 0.01 0.01 0.01 79 1009.0
20260507121535 49 0.0 0.0 0.00 0.00 0.00 83 1009.3
20260507120043 48 0.0 0.0 0.00 0.00 0.00 85 1009.4
20260507114535 48 0.0 0.0 0.00 0.00 0.00 85 1009.2
20260507113042 47 0.0 0.0 0.00 0.00 0.00 88 1009.0
20260507111545 47 0.0 0.0 0.00 0.00 0.00 89 1009.2
20260507110039 46 0.0 0.0 0.00 0.00 0.00 89 1009.1
20260507104536 47 0.0 0.0 0.00 0.00 0.00 88 1008.7
20260507103035 47 0.0 0.0 0.00 0.00 0.00 89 1008.8
20260507101558 47 0.0 0.0 0.00 0.00 0.00 88 1008.8
20260507100041 47 0.0 0.0 0.00 0.00 0.00 87 1008.6
20260507094546 47 0.0 0.0 0.00 0.00 0.00 87 1008.5
20260507093046 47 0.0 0.0 0.00 0.00 0.00 87 1008.8
20260507091551 47 0.0 0.0 0.00 0.00 0.00 87 1008.9
20260507090105 47 0.0 0.0 0.00 0.00 0.00 88 1009.1
20260507084541 47 0.0 0.0 0.00 0.00 0.00 88 1008.4
20260507083041 48 0.0 0.0 0.00 0.00 0.00 88 1008.2
20260507081550 47 0.0 0.0 0.00 0.00 0.00 89 1008.2
20260507080043 48 0.0 0.0 0.00 0.00 0.00 90 1008.0
20260507074544 48 0.0 0.0 0.00 0.00 0.00 91 1008.6
20260507073054 48 0.0 0.0 0.00 0.00 0.00 91 1008.0
20260507071539 48 0.0 0.0 0.00 0.00 0.00 91 1008.0
20260507070121 48 0.0 0.0 0.00 0.00 0.00 92 1007.9
20260507064547 48 0.0 0.0 0.00 0.00 0.00 92 1007.9
20260507063041 48 0.0 0.0 0.00 0.00 0.00 93 1008.1
20260507061542 48 0.0 0.0 0.00 0.00 0.00 93 1008.2
20260507060040 49 0.0 0.0 0.00 0.00 0.00 93 1008.0
20260507054543 49 0.0 0.0 0.00 0.00 0.00 93 1008.1
20260507053044 49 0.0 0.0 0.00 0.00 0.00 93 1008.0
20260507051541 49 0.0 0.0 0.00 0.00 0.00 93 1008.1
20260507050043 50 0.0 0.0 0.00 0.00 0.00 94 1007.9
20260507044546 50 0.0 0.0 0.00 0.01 0.00 94 1007.9
20260507043041 51 0.0 0.0 0.00 0.01 0.00 95 1008.0
20260507041539 51 0.0 0.0 0.00 0.01 0.00 95 1008.1
20260507040049 51 0.0 0.0 0.00 0.01 0.00 94 1008.0
20260507034546 51 0.0 0.0 0.00 0.01 0.01 94 1007.9
20260507033041 51 0.0 0.0 0.00 0.01 0.01 93 1007.8
20260507031542 52 0.0 0.0 0.00 0.01 0.01 92 1007.8
20260507030042 53 0.0 0.0 0.00 0.01 0.01 92 1007.7
20260507024539 55 0.0 0.0 0.00 0.01 0.01 93 1007.5
20260507023043 56 0.0 0.0 0.00 0.01 0.01 94 1007.3
20260507021534 57 0.0 0.0 0.00 0.01 0.01 94 1007.0
20260507020050 58 0.0 0.0 0.00 0.01 0.01 94 1006.7
20260507014553 59 0.0 0.0 0.00 0.01 0.01 95 1006.3
20260507013037 59 0.0 0.0 0.00 0.01 0.01 95 1006.1
20260507011539 59 0.0 0.0 0.00 0.01 0.01 95 1006.1
20260507010036 59 0.0 0.0 0.00 0.01 0.01 95 1006.1
20260507004544 59 0.0 0.0 0.00 0.01 0.01 95 1006.0
20260507003042 59 0.0 0.0 0.00 0.01 0.01 95 1005.9
20260507001536 59 0.0 0.0 0.00 0.01 0.01 95 1005.9
20260507000046 60 0.0 0.0 0.00 0.01 0.01 95 1005.8
20260506234543 60 0.0 0.0 0.00 0.01 0.01 95 1005.6
20260506233041 60 0.0 0.0 0.00 0.01 0.01 95 1005.6
20260506231542 60 0.0 0.0 0.00 0.01 0.01 95 1005.7
20260506230040 60 0.0 0.0 0.00 0.01 0.01 95 1005.8
20260506224538 60 0.0 0.0 0.00 0.01 0.01 95 1005.9
20260506223046 60 0.0 0.0 0.00 0.01 0.01 94 1006.0
20260506221544 60 0.0 0.0 0.00 0.01 0.01 94 1006.1
20260506220043 60 0.0 0.0 0.00 0.01 0.01 94 1006.2
20260506214540 60 0.0 0.0 0.00 0.01 0.01 94 1006.1
20260506213039 61 0.0 0.0 0.00 0.01 0.01 94 1006.2
20260506211536 61 0.0 0.0 0.00 0.01 0.01 94 1006.2
20260506210049 61 0.0 0.0 0.00 0.01 0.01 94 1006.2
20260506204542 62 0.0 0.0 0.00 0.01 0.01 94 1006.4
20260506203048 62 0.0 0.0 0.00 0.01 0.01 93 1006.5
20260506201545 62 0.0 0.0 0.00 0.01 0.01 93 1006.7
20260506200038 62 0.0 0.0 0.00 0.01 0.01 93 1006.8
20260506194540 62 0.0 0.0 0.00 0.01 0.01 93 1007.0
20260506193045 62 0.0 0.0 0.00 0.01 0.01 92 1007.0
20260506191543 63 0.0 0.0 0.00 0.01 0.01 92 1006.7
20260506190041 63 0.0 0.0 0.00 0.01 0.01 91 1006.9
20260506184548 63 0.0 0.0 0.00 0.01 0.01 91 1007.4
20260506183046 64 0.0 0.0 0.00 0.01 0.01 89 1007.7
20260506181542 64 0.0 0.0 0.00 0.01 0.01 86 1007.7
20260506180043 66 0.0 0.0 0.00 0.01 0.01 81 1008.1
20260506174541 68 0.0 0.0 0.00 0.01 0.01 74 1008.2
20260506173051 69 0.0 0.0 0.00 0.01 0.01 66 1007.7
20260506171549 70 0.0 0.0 0.00 0.01 0.01 63 1007.6
20260506170034 70 0.0 0.0 0.00 0.01 0.01 66 1007.6
20260506164543 70 0.0 0.0 0.00 0.01 0.01 65 1007.6
20260506163058 70 0.0 0.0 0.00 0.01 0.01 66 1007.8
20260506161544 70 0.0 0.0 0.00 0.01 0.01 67 1007.9
20260506160042 69 0.0 0.0 0.00 0.01 0.01 67 1008.3